WTB08M MDSD-KTPA

Flight info

Callsign WTB08M
Flight time N/A
Altitude 30000
Route CDO DCT MALVN Y396 RUMFO/N0466F320 Y443 SUMAC DCT OCTAL BLFRG3
Aircraft A306/H-SDE3FGHIRWY/LB1

Departure

Time 2026-05-06 06:03
Airport Las Américas International Airport (MDSD)

Arrival

Time N/A
Airport Tampa International Airport (KTPA)
Time Latitude Longitude Altitude Speed Heading
2026-05-06 05:31 18.43450 -69.67616 74 ft 0 kts 296°
2026-05-06 05:41 18.43451 -69.67617 74 ft 1 kts 296°
2026-05-06 05:41 18.43460 -69.67623 74 ft 2 kts 330°
2026-05-06 05:41 18.43476 -69.67619 65 ft 3 kts 29°
2026-05-06 05:41 18.43481 -69.67598 69 ft 3 kts 97°
2026-05-06 05:42 18.43466 -69.67568 65 ft 6 kts 124°
2026-05-06 05:42 18.43430 -69.67535 66 ft 8 kts 149°
2026-05-06 05:42 18.43397 -69.67492 66 ft 8 kts 95°
2026-05-06 05:42 18.43429 -69.67444 69 ft 8 kts 44°
2026-05-06 05:43 18.43464 -69.67407 68 ft 7 kts 45°
2026-05-06 05:43 18.43501 -69.67369 66 ft 7 kts 44°
2026-05-06 05:43 18.43530 -69.67331 70 ft 7 kts 68°
2026-05-06 05:43 18.43514 -69.67288 65 ft 7 kts 141°
2026-05-06 05:44 18.43455 -69.67267 69 ft 12 kts 161°
2026-05-06 05:44 18.43365 -69.67230 69 ft 16 kts 160°
2026-05-06 05:44 18.43245 -69.67190 68 ft 20 kts 160°
2026-05-06 05:44 18.43102 -69.67139 70 ft 24 kts 164°
2026-05-06 05:45 18.42938 -69.67077 72 ft 26 kts 160°
2026-05-06 05:45 18.42756 -69.67006 72 ft 29 kts 156°
2026-05-06 05:45 18.42598 -69.66943 72 ft 21 kts 166°
2026-05-06 05:45 18.42462 -69.66903 69 ft 20 kts 160°
2026-05-06 05:46 18.42339 -69.66857 67 ft 18 kts 159°
2026-05-06 05:46 18.42228 -69.66816 70 ft 16 kts 160°
2026-05-06 05:46 18.42129 -69.66779 71 ft 14 kts 161°
2026-05-06 05:46 18.42025 -69.66741 72 ft 16 kts 161°
2026-05-06 05:47 18.41924 -69.66706 69 ft 15 kts 160°
2026-05-06 05:47 18.41834 -69.66672 70 ft 13 kts 160°
2026-05-06 05:47 18.41755 -69.66643 72 ft 11 kts 161°
2026-05-06 05:47 18.41684 -69.66619 70 ft 10 kts 161°
2026-05-06 05:48 18.41624 -69.66597 77 ft 8 kts 159°
2026-05-06 05:48 18.41582 -69.66570 78 ft 6 kts 126°
2026-05-06 05:48 18.41569 -69.66543 73 ft 2 kts 115°
2026-05-06 05:48 18.41565 -69.66535 72 ft 0 kts 114°
2026-05-06 05:49 18.41558 -69.66517 84 ft 5 kts 113°
2026-05-06 05:49 18.41547 -69.66488 83 ft 3 kts 111°
2026-05-06 05:49 18.41540 -69.66458 83 ft 6 kts 101°
2026-05-06 05:49 18.41540 -69.66421 84 ft 5 kts 82°
2026-05-06 05:50 18.43450 -69.67616 74 ft 0 kts 296°
2026-05-06 05:52 18.43464 -69.67622 64 ft 3 kts 354°
2026-05-06 05:52 18.43470 -69.67594 66 ft 7 kts 118°
2026-05-06 05:53 18.43423 -69.67521 69 ft 16 kts 112°
2026-05-06 05:53 18.43469 -69.67409 71 ft 17 kts 40°
2026-05-06 05:53 18.43518 -69.67313 65 ft 16 kts 111°
2026-05-06 05:53 18.43411 -69.67251 70 ft 20 kts 160°
2026-05-06 05:54 18.43280 -69.67201 71 ft 19 kts 163°
2026-05-06 05:54 18.43154 -69.67160 70 ft 20 kts 161°
2026-05-06 05:54 18.43021 -69.67109 71 ft 20 kts 160°
2026-05-06 05:54 18.42890 -69.67057 71 ft 21 kts 159°
2026-05-06 05:55 18.42745 -69.67004 69 ft 22 kts 161°
2026-05-06 05:55 18.42594 -69.66946 69 ft 25 kts 159°
2026-05-06 05:55 18.42427 -69.66885 71 ft 22 kts 167°
2026-05-06 05:55 18.42306 -69.66845 69 ft 17 kts 151°
2026-05-06 05:56 18.42227 -69.66750 68 ft 16 kts 115°
2026-05-06 05:56 18.42193 -69.66650 84 ft 12 kts 88°
2026-05-06 05:56 18.42244 -69.66627 86 ft 6 kts 341°
2026-05-06 05:56 18.42245 -69.66628 86 ft 0 kts 341°
2026-05-06 06:02 18.42350 -69.66669 85 ft 51 kts 340°
2026-05-06 06:02 18.42927 -69.66882 89 ft 122 kts 342°
2026-05-06 06:03 18.43934 -69.67241 138 ft 179 kts 341°
2026-05-06 06:03 18.45086 -69.67706 1077 ft 175 kts 340°
2026-05-06 06:03 18.46263 -69.68169 1723 ft 194 kts 342°
2026-05-06 06:03 18.47628 -69.68645 2224 ft 214 kts 343°
2026-05-06 06:04 18.49001 -69.69190 3173 ft 213 kts 329°
2026-05-06 06:04 18.50050 -69.70422 3621 ft 245 kts 299°
2026-05-06 06:04 18.50849 -69.72109 4210 ft 266 kts 294°
2026-05-06 06:04 18.51656 -69.73912 4986 ft 278 kts 295°
2026-05-06 06:05 18.52521 -69.75777 5798 ft 285 kts 296°
2026-05-06 06:05 18.53408 -69.77638 6776 ft 284 kts 296°
2026-05-06 06:05 18.54306 -69.79495 7678 ft 286 kts 296°
2026-05-06 06:05 18.55222 -69.81376 8502 ft 291 kts 296°
2026-05-06 06:06 18.56157 -69.83287 9356 ft 295 kts 296°
2026-05-06 06:06 18.57107 -69.85226 10202 ft 300 kts 296°
2026-05-06 06:06 18.58075 -69.87202 10681 ft 317 kts 296°
2026-05-06 06:06 18.59076 -69.89382 10996 ft 336 kts 290°
2026-05-06 06:07 18.59567 -69.91839 11275 ft 351 kts 274°
2026-05-06 06:07 18.59808 -69.94420 11548 ft 366 kts 276°
2026-05-06 06:07 18.60352 -69.97126 11882 ft 379 kts 286°
2026-05-06 06:07 18.61382 -69.99705 12384 ft 385 kts 297°
2026-05-06 06:08 18.62860 -70.02024 12938 ft 388 kts 308°
2026-05-06 06:08 18.64775 -70.04048 13500 ft 392 kts 319°
2026-05-06 06:08 18.67040 -70.05654 14018 ft 396 kts 330°
2026-05-06 06:08 18.69490 -70.06998 14511 ft 398 kts 330°
2026-05-06 06:09 18.71847 -70.08542 15017 ft 399 kts 324°
2026-05-06 06:09 18.74132 -70.10209 15541 ft 400 kts 323°
2026-05-06 06:09 18.76407 -70.11904 16030 ft 402 kts 323°
2026-05-06 06:09 18.78697 -70.13618 16541 ft 404 kts 323°
2026-05-06 06:10 18.80997 -70.15343 17045 ft 406 kts 323°
2026-05-06 06:10 18.83315 -70.17082 17562 ft 408 kts 323°
2026-05-06 06:10 18.85640 -70.18826 18035 ft 411 kts 323°
2026-05-06 06:10 18.87970 -70.20577 18514 ft 413 kts 323°
2026-05-06 06:11 18.90320 -70.22343 18916 ft 415 kts 323°
2026-05-06 06:11 18.92673 -70.24111 19333 ft 417 kts 323°
2026-05-06 06:11 18.95043 -70.25893 19727 ft 419 kts 323°
2026-05-06 06:11 18.97423 -70.27682 20118 ft 420 kts 323°
2026-05-06 06:12 18.99783 -70.29457 20495 ft 422 kts 323°
2026-05-06 06:12 19.02209 -70.31283 20859 ft 424 kts 323°
2026-05-06 06:12 19.04581 -70.33070 21239 ft 425 kts 324°
2026-05-06 06:12 19.06997 -70.34889 21614 ft 427 kts 324°
2026-05-06 06:13 19.09450 -70.36737 21988 ft 428 kts 324°
2026-05-06 06:13 19.11848 -70.38545 22340 ft 430 kts 324°
2026-05-06 06:13 19.14290 -70.40387 22671 ft 432 kts 324°
2026-05-06 06:13 19.16749 -70.42242 23027 ft 433 kts 324°
2026-05-06 06:14 19.19211 -70.44100 23371 ft 435 kts 324°
2026-05-06 06:14 19.21683 -70.45966 23698 ft 437 kts 324°
2026-05-06 06:14 19.24164 -70.47840 23968 ft 439 kts 324°
2026-05-06 06:14 19.26654 -70.49721 24239 ft 440 kts 324°
2026-05-06 06:15 19.29152 -70.51609 24498 ft 442 kts 324°
2026-05-06 06:15 19.31658 -70.53504 24768 ft 443 kts 324°
2026-05-06 06:15 19.34172 -70.55406 25037 ft 444 kts 324°
2026-05-06 06:15 19.36652 -70.57282 25323 ft 445 kts 324°
2026-05-06 06:16 19.39206 -70.59216 25584 ft 446 kts 324°
2026-05-06 06:16 19.41731 -70.61144 25846 ft 448 kts 324°
2026-05-06 06:16 19.44221 -70.63072 26105 ft 449 kts 324°
2026-05-06 06:16 19.46738 -70.65026 26332 ft 450 kts 324°
2026-05-06 06:17 19.49272 -70.66994 26573 ft 452 kts 324°
2026-05-06 06:17 19.51813 -70.68969 26817 ft 453 kts 324°
2026-05-06 06:17 19.54362 -70.70949 27032 ft 455 kts 324°
2026-05-06 06:17 19.56920 -70.72937 27233 ft 456 kts 324°
2026-05-06 06:18 19.59478 -70.74927 27440 ft 458 kts 324°
2026-05-06 06:18 19.62051 -70.76927 27657 ft 459 kts 324°
2026-05-06 06:18 19.64630 -70.78934 27862 ft 460 kts 324°
2026-05-06 06:18 19.67223 -70.80952 28060 ft 461 kts 324°
2026-05-06 06:19 19.69816 -70.82971 28236 ft 462 kts 324°
2026-05-06 06:19 19.72402 -70.84986 28510 ft 462 kts 324°
2026-05-06 06:19 19.74998 -70.87009 28819 ft 461 kts 324°
2026-05-06 06:19 19.77541 -70.88992 29133 ft 459 kts 323°
2026-05-06 06:20 19.80140 -70.91019 29478 ft 457 kts 323°
2026-05-06 06:20 19.82669 -70.92993 29797 ft 456 kts 323°
2026-05-06 06:20 19.85216 -70.94981 30088 ft 455 kts 323°
2026-05-06 06:20 19.87766 -70.96973 30349 ft 454 kts 323°
2026-05-06 06:21 19.90318 -70.98966 30615 ft 453 kts 323°
2026-05-06 06:21 19.92854 -71.00949 30905 ft 451 kts 323°
2026-05-06 06:21 19.95381 -71.02924 31200 ft 450 kts 323°
2026-05-06 06:21 19.97892 -71.04888 31486 ft 448 kts 323°
2026-05-06 06:22 20.00401 -71.06852 31768 ft 447 kts 323°
2026-05-06 06:22 20.02905 -71.08812 31986 ft 447 kts 323°
2026-05-06 06:22 20.07793 -71.12641 32017 ft 425 kts 323°
2026-05-06 06:23 20.12487 -71.16321 32020 ft 420 kts 323°
2026-05-06 06:23 20.17177 -71.20001 32017 ft 419 kts 323°
2026-05-06 06:24 20.21516 -71.23408 32020 ft 419 kts 323°
2026-05-06 06:24 20.26210 -71.27096 32019 ft 419 kts 323°
2026-05-06 06:25 20.30897 -71.30781 32018 ft 419 kts 323°
2026-05-06 06:26 20.37935 -71.36320 32017 ft 419 kts 323°
2026-05-06 06:26 20.42391 -71.40322 32016 ft 419 kts 312°
2026-05-06 06:27 20.46129 -71.45073 32019 ft 419 kts 309°
2026-05-06 06:27 20.49729 -71.49973 32020 ft 419 kts 308°
2026-05-06 06:28 20.53296 -71.54835 32024 ft 419 kts 308°
2026-05-06 06:28 20.56317 -71.58919 32016 ft 418 kts 309°
2026-05-06 06:29 20.60519 -71.64572 32017 ft 418 kts 309°
2026-05-06 06:29 20.63549 -71.68648 32019 ft 418 kts 309°
2026-05-06 06:30 20.67136 -71.73477 32016 ft 418 kts 309°
2026-05-06 06:30 20.70746 -71.78345 32019 ft 418 kts 309°
2026-05-06 06:31 20.74353 -71.83213 32017 ft 418 kts 309°
2026-05-06 06:31 20.77965 -71.88091 32014 ft 418 kts 309°
2026-05-06 06:32 20.81544 -71.92929 32021 ft 417 kts 308°
2026-05-06 06:32 20.85134 -71.97785 32020 ft 416 kts 308°
2026-05-06 06:33 20.88716 -72.02635 32024 ft 415 kts 308°
2026-05-06 06:33 20.92294 -72.07485 32021 ft 415 kts 308°
2026-05-06 06:34 20.94921 -72.11047 32021 ft 415 kts 308°
2026-05-06 06:34 20.98493 -72.15896 32024 ft 415 kts 308°
2026-05-06 06:35 21.02062 -72.20743 32022 ft 415 kts 308°
2026-05-06 06:35 21.04526 -72.24093 32023 ft 415 kts 308°